Regional Weather Roundup
Issued by NWS

Home | Current Version | Previous Version | Text Only | Print | Product List | Glossary On
Versions: 1 2 3 4 5 6 7 8 9 10 11 12 13 14 15 16 17 18 19 20 21 22 23 24 25 26 27
000
ASUS45 KBOU 310610
RWRCO

WEATHER ROUNDUP FOR COLORADO
NATIONAL WEATHER SERVICE DENVER/BOULDER CO
1200 AM MDT SAT JUL 31 2021

NOTE: "FAIR" INDICATES FEW OR NO CLOUDS BELOW 12000 FEET WITH NO
SIGNIFICANT WEATHER AND/OR OBSTRUCTIONS TO VISIBILITY.

COZ001>005-013-030-031-310700-
...NORTHWEST COLORADO...

CITY           SKY/WX    TMP DP  RH WIND       PRES   REMARKS
CRAIG          CLOUDY    64  57  78 E6        30.36F
HAYDEN         FAIR      64  55  72 E6        30.41R
MEEKER         FAIR      66  53  63 E12       30.37R
RANGELY        FAIR      75  56  50 E5        30.22F
RABBIT EARS PA MOCLDY    50  48  93 SE3       30.69F
STEAMBOAT SPGS FAIR      59  59 100 NW3       30.40S
WALDEN         CLOUDY    57  53  86 CALM      30.52F
$$

COZ006>008-011-310700-
...WEST CENTRAL VALLEYS...

CITY           SKY/WX    TMP DP  RH WIND       PRES   REMARKS
GRAND JUNCTION FAIR      67  61  81 E16       30.27R
MONTROSE       FAIR      67  54  63 CALM      30.35R
EAGLE          FAIR      61  59  93 NE3       30.45F
RIFLE          LGT RAIN  65  59  81 E10       30.36F
DELTA          FAIR      72  56  57 MISG      30.31S
NUCLA          NOT AVBL
$$

COZ017>023-064>068-310700-
...SOUTHWEST COLORADO...

CITY           SKY/WX    TMP DP  RH WIND       PRES   REMARKS
DURANGO        MOCLDY    64  52  64 CALM      30.36S
CORTEZ         FAIR      64  55  72 E14       30.31F
PAGOSA SPRINGS FAIR      57  52  83 CALM      30.45F
TELLURIDE      FAIR      54  50  87 SE5       30.59F
WOLF CREEK PAS MOCLDY    48  37  66 CALM      30.82R
$$

COZ009-010-012-014-032>034-037-058>063-310700-
...CENTRAL COLORADO...

CITY           SKY/WX    TMP DP  RH WIND       PRES   REMARKS
ASPEN          CLOUDY    57  53  86 S5        30.52S
BUENA VISTA    MOCLDY    57  53  86 N3        30.52F
COPPER MTN     LGT RAIN  52  41  66 CALM      30.80S
BERTHOUD PASS  LGT RAIN  41  30  65 W16       30.81F
DAKOTA HILL    CLOUDY    45  41  87 NW12G18   30.68F
COTTONWOOD PAS CLOUDY    54  48  82 CALM      30.64S
GUNNISON       CLOUDY    59  54  83 CALM      30.49F
GRANBY         DRIZZLE   56  55  93 CALM      30.54F
KREMMLING      FAIR      59  52  77 S6        30.49S
LEADVILLE      MOCLDY    49  48  97 E6        30.64S
SALIDA         MOCLDY    61  57  87 S7        30.57R
SUNLIGHT       DRIZZLE   46  43  87 W5        30.74S
WILKERSON PASS CLOUDY    50  43  76 SW5       30.75S
$$

COZ069>075-310700-
...SAN LUIS VALLEY/SANGRE DE CRISTO MOUNTAINS...

CITY           SKY/WX    TMP DP  RH WIND       PRES   REMARKS
ALAMOSA        MOCLDY    60  46  59 NW5       30.42R
DEL NORTE      MOCLDY    62  45  53 W8        30.47S
LA VETA PASS   MOCLDY    55  41  58 W8        30.61S
SAGUACHE       RAIN      61  54  77 NW7       30.46F
$$

COZ035-036-038>040-310700-
...NORTHERN COLORADO FRONT RANGE...

CITY           SKY/WX    TMP DP  RH WIND       PRES   REMARKS
DENVER INTL AP LGT RAIN  68  59  73 NW18      30.29S
AURORA         CLOUDY    64  61  91 W7        30.31F
WATKINS        NOT AVBL
ERIE           CLOUDY    64  60  89 NE7       30.31S
BOULDER        LGT RAIN  68  59  73 NE5       30.29F
CENTENNIAL     MOCLDY    64  57  78 N5        30.32F
BROOMFIELD     LGT RAIN  64  59  82 N14       30.30F
FORT COLLINS   RAIN      65  62  90 CALM      30.35R FOG
LONGMONT       RAIN      66  60  81 N6        30.32F
$$

COZ041-046-047-076>085-087-088-310700-
...PIKES PEAK/PALMER DIVIDE AND SOUTHERN FOOTHILLS...

CITY           SKY/WX    TMP DP  RH WIND       PRES   REMARKS
COLO. SPRINGS  MOCLDY    71  53  52 NW15G24   30.31S
A. F. ACADEMY  FAIR      64  53  68 N10       30.33F
SCHRIEVER AFB  NOT AVBL
CHEYENNE MTN   NOT AVBL
ELLICOTT       FAIR      69  55  62 N18G28    30.29S
FALCON         FAIR      66  49  54 N18G29    30.36S
FORT CARSON    FAIR      72  51  47 N18       30.24S
LIMON          FAIR      71  55  56 NW16G24   30.25R
MONUMENT HILL  FAIR      59  52  77 W7        30.40F
CANON CITY     FAIR      77  54  44 W17G28    30.23R
WALSENBURG     NOT AVBL
TRINIDAD       FAIR      72  47  40 W9        30.22S
$$

COZ042>045-048>051-090-091-310700-
...NORTHEAST COLORADO...

CITY           SKY/WX    TMP DP  RH WIND       PRES   REMARKS
GREELEY        TSTM      64  62  93 N15       30.30S
AKRON          FAIR      72  62  71 N13       30.18S
BURLINGTON     FAIR      72  55  55 S10       30.12F
WRAY           FAIR      75  50  41 NW6       30.08S
YUMA           FAIR      73  48  40 NW6       30.13R
STERLING       CLOUDY    75  63  64 MISG      30.16R
HOLYOKE        FAIR      79  72  78 N14       30.11R
FORT MORGAN    MOCLDY    68  59  71 NW24G31   30.26R
$$

COZ086-089-092>099-310700-
...SOUTHEAST COLORADO...

CITY           SKY/WX    TMP DP  RH WIND       PRES   REMARKS
PUEBLO         FAIR      79  54  41 N30G39    30.15R
LA JUNTA       FAIR      87  47  24 S16G25    30.06R
LAMAR          FAIR      80  55  42 SE13G22   30.04F
SPRINGFIELD      N/A     75  56  51 S14       30.14S
$$



USA.gov is the U.S. government's official web portal to all federal, state and local government web resources and services.